Weather History for Lumberton, NC

Change the Weather History Date:

Tuesday, March 20, 2012

  Actual Average Record
Temperature  
Mean Temperature 68 °F 55 °F  
Max Temperature 81 °F 68 °F 81 °F (2012)
Min Temperature 54 °F 43 °F 32 °F (2013)
Degree Days  
Heating Degree Days 0 10  
Month to date heating degree days 135 252  
Since 1 July heating degree days 1983 2482  
Cooling Degree Days 3 0  
Month to date cooling degree days 31 0  
Year to date cooling degree days 31 3  
Growing Degree Days 17 (Base 50)    
Moisture  
Dew Point 59 °F    
Average Humidity 76    
Maximum Humidity 100    
Minimum Humidity 51    
Precipitation  
Precipitation 0.05 in 0.11 in 1.85 in (2003)
Month to date precipitation 1.76 2.17  
Year to date precipitation 6.28 8.04  
Sea Level Pressure  
Sea Level Pressure 30.19 in    
Wind  
Wind Speed 3 mph (South)    
Max Wind Speed 13 mph    
Max Gust Speed 15 mph    
Visibility 6 miles    
Events Rain    
T = Trace of Precipitation, MM = Missing Value Source: NWS Daily Summary

Daily Weather History Graph

Daily Weather History Graph

Search for Another Location

Airport:

Trip Planner

Search our weather history database for the weather conditions in past years. The results will help you decide how hot, cold, wet, or windy it might be!

Date:

Astronomy

Mar. 20, 2012 Rise Set
Actual Time 7:19 AM EDT 7:28 PM EDT
Civil Twilight 6:54 AM EDT 7:53 PM EDT
Nautical Twilight 6:24 AM EDT 8:22 PM EDT
Astronomical Twilight 5:55 AM EDT 8:52 PM EDT
Moon 5:57 AM EDT (3/20) 5:56 PM EDT (3/20)
Length of Visible Light 12h 59m
Length of Day
12h 09m
Waning Crescent, 4% of the Moon is Illuminated
Mar 20
Waning Crescent
Mar 22
New
Mar 30
First Quarter
Apr 6
Full
Apr 13
Last Quarter

Hourly Weather History & Observations

Time (EDT) Temp. Heat Index Dew Point Humidity Pressure Visibility Wind Dir Wind Speed Gust Speed Precip Events Conditions
12:54 AM 60.1 °F - 57.9 °F 93% 30.17 in 8.0 mi Calm Calm - N/A   Clear
1:54 AM 57.0 °F - 55.9 °F 96% 30.17 in 6.0 mi Calm Calm - N/A   Clear
2:54 AM 57.0 °F - 55.9 °F 96% 30.15 in 4.0 mi Calm Calm - N/A   Clear
3:33 AM 55.4 °F - 55.4 °F 100% 30.14 in 1.5 mi Calm Calm - N/A   Clear
3:36 AM 55.4 °F - 53.6 °F 94% 30.14 in 2.0 mi Calm Calm - N/A   Clear
3:46 AM 55.4 °F - 53.6 °F 94% 30.14 in 5.0 mi ESE 3.5 mph - N/A   Clear
3:54 AM 55.0 °F - 54.0 °F 96% 30.14 in 3.0 mi Calm Calm - N/A   Clear
4:54 AM 54.0 °F - 54.0 °F 100% 30.14 in 5.0 mi Calm Calm - N/A   Clear
5:54 AM 55.0 °F - 54.0 °F 96% 30.17 in 4.0 mi Calm Calm - N/A   Overcast
6:54 AM 55.9 °F - 55.0 °F 97% 30.19 in 4.0 mi Calm Calm - N/A   Overcast
7:24 AM 57.2 °F - 55.4 °F 94% 30.19 in 2.5 mi Calm Calm - N/A   Overcast
7:40 AM 57.2 °F - 55.4 °F 94% 30.20 in 1.5 mi Calm Calm - N/A   Mostly Cloudy
7:54 AM 59.0 °F - 57.9 °F 96% 30.21 in 1.5 mi ESE 3.5 mph - N/A   Overcast
8:30 AM 60.8 °F - 59.0 °F 94% 30.23 in 1.8 mi Calm Calm - N/A   Overcast
8:47 AM 60.8 °F - 59.0 °F 94% 30.25 in 2.0 mi NNE 10.4 mph - N/A   Overcast
8:54 AM 61.0 °F - 59.0 °F 93% 30.25 in 2.0 mi NE 9.2 mph - N/A   Overcast
9:40 AM 62.6 °F - 60.8 °F 94% 30.24 in 3.0 mi Calm Calm - 0.02 in Rain Light Rain
9:54 AM 61.0 °F - 59.0 °F 93% 30.22 in 2.5 mi SW 6.9 mph - 0.03 in Rain Light Rain
10:05 AM 60.8 °F - 60.8 °F 100% 30.23 in 1.8 mi West 8.1 mph - 0.02 in Rain Light Rain
10:13 AM 60.8 °F - 60.8 °F 100% 30.23 in 2.5 mi West 8.1 mph - 0.02 in Rain Light Rain
10:20 AM 62.6 °F - 60.8 °F 94% 30.24 in 4.0 mi West 4.6 mph - 0.02 in Rain Light Rain
10:54 AM 66.0 °F - 62.1 °F 87% 30.24 in 6.0 mi Calm Calm - 0.02 in   Partly Cloudy
11:54 AM 68.0 °F - 63.0 °F 84% 30.24 in 6.0 mi Calm Calm - N/A   Haze
12:54 PM 73.9 °F - 62.1 °F 66% 30.23 in 10.0 mi Calm Calm - N/A   Clear
1:54 PM 75.9 °F - 62.1 °F 62% 30.20 in 10.0 mi WSW 4.6 mph - N/A   Clear
2:54 PM 79.0 °F - 62.1 °F 56% 30.16 in 10.0 mi Calm Calm - N/A   Clear
3:54 PM 80.1 °F 80.9 °F 60.1 °F 50% 30.14 in 10.0 mi Calm Calm - N/A   Partly Cloudy
4:54 PM 80.1 °F 80.9 °F 60.1 °F 50% 30.13 in 10.0 mi Variable 5.8 mph - N/A   Clear
5:54 PM 79.0 °F - 59.0 °F 50% 30.12 in 10.0 mi South 5.8 mph - N/A   Clear
6:54 PM 75.0 °F - 59.0 °F 57% 30.13 in 10.0 mi SSW 3.5 mph - N/A   Clear
7:54 PM 72.0 °F - 62.1 °F 71% 30.15 in 10.0 mi SSE 6.9 mph - N/A   Clear
8:54 PM 69.1 °F - 60.1 °F 73% 30.17 in 10.0 mi SSE 5.8 mph - N/A   Clear
9:54 PM 66.0 °F - 61.0 °F 84% 30.19 in 10.0 mi SE 4.6 mph - N/A   Clear
10:54 PM 64.9 °F - 61.0 °F 87% 30.21 in 8.0 mi Calm Calm - N/A   Clear
11:54 PM 63.0 °F - 61.0 °F 93% 30.23 in 6.0 mi Calm Calm - N/A   Partly Cloudy